{"data":{"norad_id":63007,"intl_designator":"2025-032C","name":"STARLINK-11526 [DTC]","alt_names":[],"object_type":"PAYLOAD","status":"ACTIVE","operator":null,"country":"US","launch_date":"2025-02-15","launch_site_code":"AFETR","launch_vehicle":null,"mission":null,"orbit_class":"UNKNOWN","rcs_meters":null,"size_class":null,"mass_kg":null,"dimensions":null,"purposes":["comms"],"wikipedia_slug":null,"has_3d_model":false,"image_url":null,"decayed_at":null,"tle_current":{"epoch":"2026-09-21T21:00:27.631584Z","epoch_age_seconds":46259,"freshness":"FRESH","line1":"1 63007U 25032C   26264.87531981  .00190198  00000+0  14431-2 0  9992","line2":"2 63007  42.9995  92.3586 0004222 270.5728  89.4656 15.70981537 93073","mean_motion":15.70981537,"eccentricity":0.0004222,"inclination_deg":42.9995,"raan_deg":92.3586,"arg_perigee_deg":270.5728,"mean_anomaly_deg":89.4656,"bstar":0.0014431,"rev_number":9307,"period_min":91.662439442151,"perigee_km":353.24736183336,"apogee_km":358.93374357886,"semimajor_km":6734.2275527061,"source":"CELESTRAK","updated_at":"2026-09-22T09:00:49.737873Z"}}}